EA1AY-13 Weather Reports


time (UTC)temp
F
wind
direction
speed
knots
gust
knots
rain 1hr
in
rain 24hr
in
rain mn
in
humidity
%
barometer
mb
20260507023517 0 0.0 0.0 0.00 0.08 0.00
20260507021017 0 0.0 0.0 0.00 0.08 0.00
20260507014517 0 0.0 0.0 0.00 0.08 0.00
20260507012517 0 0.0 0.0 0.00 0.08 0.00
20260507011537 0 0.0 0.0 0.00 0.08 0.00
20260507005517 0 0.0 0.0 0.00 0.08 0.00
20260507003016 0 0.0 0.0 0.00 0.08 0.00
20260507000516 0 0.0 0.0 0.00 0.08 0.00
20260506234017 0 0.0 0.0 0.00 0.08 0.00
20260506231517 0 0.0 0.0 0.00 0.08 0.00
20260506225516 0 0.0 0.0 0.00 0.08 0.00
20260506224537 0 0.0 0.0 0.00 0.08 0.00
20260506222517 0 0.0 0.0 0.00 0.08 0.00
20260506220017 0 0.0 0.0 0.00 0.08 0.00
20260506213515 0 0.0 0.0 0.00 0.08 0.12
20260506211016 0 0.0 0.0 0.00 0.08 0.12
20260506204535 0 0.0 0.0 0.00 0.08 0.12
20260506202515 0 0.0 0.0 0.00 0.08 0.12
20260506201515 0 0.0 0.0 0.00 0.08 0.12
20260506195516 0 0.0 0.0 0.00 0.08 0.12
20260506193515 0 0.0 0.0 0.00 0.08 0.12
20260506192536 0 0.0 0.0 0.00 0.08 0.12
20260506191016 0 0.0 0.0 0.00 0.08 0.12
20260506190035 0 0.0 0.0 0.00 0.08 0.12
20260506184516 0 0.0 0.0 0.00 0.08 0.12
20260506183516 0 0.0 0.0 0.00 0.08 0.12
20260506181515 0 0.0 0.0 0.00 0.08 0.12
20260506175016 60 0.0 0.9 0.00 0.08 0.12 78
20260506174056 60 0.0 3.5 0.00 0.08 0.12 78
20260506173015 60 0.0 0.9 0.00 0.08 0.12 77
20260506172016 60 0.0 2.6 0.00 0.08 0.12 76
20260506171015 60 0.0 2.6 0.00 0.08 0.12 77
20260506170036 61 0.0 2.6 0.00 0.08 0.12 78
20260506165015 61 0.0 4.3 0.00 0.08 0.12 78
20260506164016 60 0.9 4.3 0.00 0.08 0.12 78
20260506163015 61 0.0 0.9 0.00 0.08 0.12 79
20260506162015 60 0.0 3.5 0.00 0.08 0.12 79
20260506161015 60 0.9 5.2 0.00 0.08 0.12 78
20260506160015 61 2.6 8.7 0.00 0.08 0.12 76
20260506155016 61 0.0 1.7 0.00 0.08 0.12 77
20260506154016 61 0.9 3.5 0.00 0.09 0.12 76
20260506153015 61 0.9 3.5 0.00 0.09 0.12 75
20260506152015 62 0.9 4.3 0.00 0.09 0.12 75
20260506151015 62 0.9 3.5 0.00 0.09 0.12 75
20260506150037 62 0.0 1.7 0.00 0.09 0.12 74
20260506145015 62 0.9 3.5 0.00 0.09 0.12 74
20260506144016 62 0.9 4.3 0.00 0.09 0.12 75
20260506143016 62 0.0 3.5 0.00 0.09 0.12 76
20260506142016 61 0.0 3.5 0.00 0.09 0.12 77
20260506141035 60 0.9 4.3 0.00 0.09 0.12 78
20260506140035 59 0.0 3.5 0.00 0.09 0.12 81
20260506135016 59 0.0 2.6 0.00 0.09 0.12 81
20260506134015 59 0.9 3.5 0.00 0.13 0.12 81
20260506133015 60 0.0 1.7 0.00 0.13 0.12 80
20260506132015 60 0.0 1.7 0.00 0.13 0.12 80
20260506131016 60 0.0 0.9 0.00 0.13 0.12 80
20260506130015 59 0.0 1.7 0.00 0.13 0.12 80
20260506125015 59 0.0 0.9 0.00 0.13 0.12 80
20260506124015 59 0.0 3.5 0.01 0.13 0.12 80
20260506123016 59 0.0 3.5 0.01 0.13 0.12 80
20260506122016 60 0.0 1.7 0.02 0.13 0.12 80
20260506121015 60 0.0 0.0 0.02 0.13 0.12 80
20260506120015 59 0.0 3.5 0.02 0.13 0.12 80
20260506115015 60 0.0 2.6 0.03 0.13 0.12 80
20260506114015 59 0.0 3.5 0.05 0.12 0.11 80
20260506113016 58 0.0 2.6 0.06 0.12 0.11 79
20260506112015 57 0.0 3.5 0.06 0.11 0.10 79
20260506111015 57 0.9 7.0 0.06 0.11 0.10 79
20260506110015 56 2.6 8.7 0.06 0.10 0.09 78
20260506105015 56 1.7 9.6 0.05 0.09 0.09 77
20260506104015 56 3.5 7.8 0.02 0.07 0.06 78
20260506103015 57 4.3 11.3 0.01 0.06 0.05 80
20260506102035 59 7.0 13.0 0.01 0.06 0.05 80
20260506101015 62 2.6 7.8 0.01 0.06 0.05 77
20260506100015 61 0.0 0.9 0.00 0.05 0.04 80
20260506095016 58 0.0 0.0 0.00 0.05 0.04 77
20260506094015 57 0.0 0.9 0.00 0.05 0.04 76
20260506093015 57 0.0 4.3 0.00 0.05 0.04 73
20260506092035 57 0.0 0.0 0.00 0.05 0.04 66
20260506091015 57 0.0 0.0 0.00 0.05 0.04 59
20260506090016 57 0.0 0.0 0.00 0.05 0.04 58
20260506085016 56 0.0 0.0 0.00 0.05 0.04 58
20260506084516 0 0.0 0.0 0.00 0.05 0.00
20260506083515 0 0.0 0.0 0.00 0.05 0.00
20260506082015 0 0.0 0.0 0.00 0.05 0.00
20260506081015 0 0.0 0.0 0.00 0.05 0.00
20260506073015 0 0.0 0.0 0.00 0.05 0.00
20260506072035 0 0.0 0.0 0.00 0.05 0.00
20260506070515 0 0.0 0.0 0.00 0.05 0.00
20260506061517 0 0.0 0.0 0.00 0.05 0.00
20260506060515 0 0.0 0.0 0.00 0.05 0.00
20260506045017 0 0.0 0.0 0.00 0.05 0.00
20260506043517 0 0.0 0.0 0.00 0.05 0.00
20260506042517 0 0.0 0.0 0.00 0.05 0.00
20260506041017 0 0.0 0.0 0.00 0.05 0.00
20260506040017 0 0.0 0.0 0.00 0.05 0.00
20260506034517 0 0.0 0.0 0.00 0.05 0.00
20260506033537 0 0.0 0.0 0.00 0.05 0.00
20260506032017 0 0.0 0.0 0.00 0.05 0.00
20260506031017 0 0.0 0.0 0.00 0.05 0.00